TimeCST,TemperatureF,Dew PointF,Humidity,Sea Level PressureIn,VisibilityMPH,Wind Direction,Wind SpeedMPH,Gust SpeedMPH,PrecipitationIn,Events,Conditions,WindDirDegrees,DateUTC
12:15 AM,14.0,10.4,86,29.89,10.0,East,9.2,-,N/A,,Overcast,90,2012-12-13 06:15:00
12:35 AM,12.2,10.4,92,29.90,10.0,East,8.1,-,N/A,,Overcast,90,2012-12-13 06:35:00
12:55 AM,14.0,10.4,86,29.90,10.0,East,8.1,-,N/A,,Overcast,80,2012-12-13 06:55:00
1:15 AM,14.0,10.4,86,29.89,10.0,ESE,11.5,-,N/A,,Overcast,110,2012-12-13 07:15:00
1:35 AM,14.0,10.4,86,29.89,10.0,East,8.1,-,N/A,,Overcast,90,2012-12-13 07:35:00
1:55 AM,14.0,10.4,86,29.89,10.0,East,6.9,-,N/A,,Overcast,100,2012-12-13 07:55:00
2:15 AM,14.0,10.4,86,29.90,10.0,Calm,Calm,-,N/A,,Overcast,0,2012-12-13 08:15:00
2:35 AM,14.0,10.4,86,29.90,10.0,ENE,4.6,-,N/A,,Overcast,60,2012-12-13 08:35:00
2:55 AM,14.0,10.4,86,29.92,10.0,NE,3.5,-,N/A,,Overcast,50,2012-12-13 08:55:00
3:15 AM,14.0,8.6,79,29.92,10.0,East,5.8,-,N/A,,Overcast,90,2012-12-13 09:15:00
3:35 AM,12.2,8.6,85,29.90,10.0,ESE,11.5,-,N/A,,Overcast,110,2012-12-13 09:35:00
3:55 AM,14.0,10.4,86,29.91,10.0,ESE,9.2,-,N/A,,Overcast,110,2012-12-13 09:55:00
4:15 AM,14.0,10.4,86,29.91,10.0,ESE,13.8,-,N/A,,Overcast,120,2012-12-13 10:15:00
4:35 AM,14.0,10.4,86,29.91,10.0,SE,8.1,-,N/A,,Overcast,130,2012-12-13 10:35:00
4:55 AM,14.0,10.4,86,29.91,10.0,Calm,Calm,-,N/A,,Overcast,0,2012-12-13 10:55:00
5:15 AM,14.0,10.4,86,29.91,10.0,ESE,4.6,-,N/A,,Overcast,110,2012-12-13 11:15:00
5:35 AM,14.0,10.4,86,29.91,10.0,SE,10.4,-,N/A,,Overcast,130,2012-12-13 11:35:00
5:55 AM,14.0,10.4,86,29.91,10.0,ESE,10.4,-,N/A,,Overcast,120,2012-12-13 11:55:00
6:15 AM,14.0,10.4,86,29.91,10.0,ESE,11.5,-,N/A,,Overcast,120,2012-12-13 12:15:00
6:35 AM,14.0,10.4,86,29.91,10.0,ESE,11.5,-,N/A,,Overcast,120,2012-12-13 12:35:00
6:55 AM,14.0,10.4,86,29.92,10.0,ESE,9.2,-,N/A,,Overcast,120,2012-12-13 12:55:00
7:15 AM,15.8,12.2,86,29.91,10.0,ESE,10.4,-,N/A,,Overcast,120,2012-12-13 13:15:00
7:35 AM,15.8,12.2,86,29.90,10.0,ESE,8.1,-,N/A,,Overcast,110,2012-12-13 13:35:00
7:55 AM,15.8,12.2,86,29.91,10.0,East,4.6,-,N/A,,Overcast,90,2012-12-13 13:55:00
8:15 AM,15.8,14.0,93,29.91,5.0,East,5.8,-,N/A,Snow,Light Snow,100,2012-12-13 14:15:00
8:35 AM,15.8,14.0,93,29.90,6.0,ESE,5.8,-,N/A,,Overcast,110,2012-12-13 14:35:00
8:55 AM,17.6,14.0,86,29.90,9.0,ESE,6.9,-,N/A,,Overcast,120,2012-12-13 14:55:00
9:15 AM,17.6,14.0,86,29.91,10.0,East,5.8,-,N/A,,Overcast,100,2012-12-13 15:15:00
9:35 AM,17.6,14.0,86,29.91,9.0,East,5.8,-,N/A,,Overcast,100,2012-12-13 15:35:00
9:55 AM,17.6,14.0,86,29.91,9.0,East,5.8,-,N/A,,Overcast,100,2012-12-13 15:55:00
10:15 AM,17.6,15.8,93,29.91,9.0,ESE,6.9,-,N/A,,Overcast,120,2012-12-13 16:15:00
10:35 AM,17.6,15.8,93,29.92,7.0,SE,6.9,-,N/A,,Overcast,130,2012-12-13 16:35:00
10:55 AM,19.4,17.6,93,29.92,5.0,SE,5.8,-,N/A,,Overcast,140,2012-12-13 16:55:00
11:15 AM,19.4,17.6,93,29.93,5.0,SE,5.8,-,N/A,,Overcast,130,2012-12-13 17:15:00
11:35 AM,21.2,17.6,86,29.92,4.0,SE,6.9,-,N/A,,Overcast,130,2012-12-13 17:35:00
11:55 AM,23.0,19.4,86,29.91,8.0,SSE,5.8,-,N/A,,Overcast,150,2012-12-13 17:55:00
12:15 PM,23.0,19.4,86,29.90,8.0,SE,5.8,-,N/A,,Overcast,140,2012-12-13 18:15:00
12:35 PM,23.0,19.4,86,29.90,8.0,ESE,5.8,-,N/A,,Overcast,120,2012-12-13 18:35:00
12:55 PM,23.0,19.4,86,29.89,9.0,ESE,6.9,-,N/A,,Overcast,110,2012-12-13 18:55:00
1:15 PM,23.0,19.4,86,29.88,8.0,ESE,9.2,-,N/A,,Overcast,120,2012-12-13 19:15:00
1:35 PM,24.8,21.2,86,29.87,7.0,ESE,6.9,-,N/A,,Overcast,120,2012-12-13 19:35:00
1:55 PM,24.8,21.2,86,29.87,8.0,ESE,6.9,-,N/A,,Overcast,110,2012-12-13 19:55:00
2:15 PM,24.8,23.0,93,29.87,8.0,ESE,5.8,-,N/A,,Overcast,110,2012-12-13 20:15:00
2:35 PM,26.6,23.0,86,29.86,8.0,ESE,8.1,-,N/A,,Overcast,120,2012-12-13 20:35:00
2:55 PM,26.6,24.8,93,29.86,7.0,ESE,8.1,-,N/A,,Overcast,120,2012-12-13 20:55:00
3:15 PM,26.6,24.8,93,29.85,8.0,SE,9.2,-,N/A,,Overcast,130,2012-12-13 21:15:00
3:35 PM,28.4,26.6,93,29.84,8.0,ESE,8.1,-,N/A,,Overcast,120,2012-12-13 21:35:00
3:55 PM,28.4,26.6,93,29.85,8.0,ESE,5.8,-,N/A,,Overcast,120,2012-12-13 21:55:00
4:15 PM,28.4,26.6,93,29.84,8.0,ESE,8.1,-,N/A,,Overcast,110,2012-12-13 22:15:00
4:35 PM,28.4,26.6,93,29.84,9.0,ESE,8.1,-,N/A,,Overcast,120,2012-12-13 22:35:00
6:55 PM,33.8,32.0,93,29.83,10.0,South,8.1,-,N/A,,Overcast,170,2012-12-14 00:55:00
7:15 PM,33.8,32.0,93,29.83,10.0,South,6.9,-,N/A,,Overcast,180,2012-12-14 01:15:00
7:35 PM,33.8,32.0,93,29.83,10.0,South,6.9,-,N/A,,Overcast,190,2012-12-14 01:35:00
7:55 PM,32.0,32.0,100,29.83,10.0,South,4.6,-,N/A,,Overcast,170,2012-12-14 01:55:00
8:15 PM,32.0,32.0,100,29.82,10.0,South,5.8,-,N/A,,Overcast,170,2012-12-14 02:15:00
8:35 PM,32.0,32.0,100,29.82,10.0,South,6.9,-,N/A,,Overcast,170,2012-12-14 02:35:00
8:55 PM,32.0,32.0,100,29.82,10.0,South,8.1,-,N/A,,Overcast,170,2012-12-14 02:55:00
9:15 PM,32.0,32.0,100,29.82,10.0,SSE,6.9,-,N/A,,Overcast,150,2012-12-14 03:15:00
9:35 PM,32.0,32.0,100,29.81,10.0,SSE,8.1,-,N/A,,Overcast,150,2012-12-14 03:35:00
9:55 PM,32.0,32.0,100,29.81,10.0,South,6.9,-,N/A,,Overcast,170,2012-12-14 03:55:00
10:15 PM,32.0,32.0,100,29.81,10.0,SSE,8.1,-,N/A,,Overcast,160,2012-12-14 04:15:00
10:35 PM,32.0,32.0,100,29.81,10.0,SSE,9.2,-,N/A,,Overcast,160,2012-12-14 04:35:00
10:55 PM,32.0,32.0,100,29.81,10.0,SSE,5.8,-,N/A,,Overcast,160,2012-12-14 04:55:00
11:15 PM,32.0,32.0,100,29.81,8.0,SSE,9.2,-,N/A,,Overcast,160,2012-12-14 05:15:00
11:35 PM,30.2,30.2,100,29.81,8.0,South,8.1,-,N/A,,Overcast,170,2012-12-14 05:35:00
11:55 PM,30.2,30.2,100,29.81,4.0,SSE,6.9,-,N/A,,Overcast,160,2012-12-14 05:55:00